Location: Sihaung
(22.8641°N, 94.0549°E)
Time: 01:43:12
(UTC+00:00)

Cosmos 1933 - Pass Details

Date: 03 March 2021
Orbit: 547 x 562 km, 82.5° (Epoch: 13 April)

Event Time Altitude Azimuth Distance (km) Brightness Sun altitude
Rises 23:16:48 0° 206° (SSW) 2,701 6.6 -11.4°
Reaches altitude 10° 23:19:11 10° 219° (SW) 1,812 5.6 -10.9°
Maximum altitude 23:22:37 27° 278° (W) 1,059 4.2 -10.1°
Drops below altitude 10° 23:26:04 10° 338° (NNW) 1,824 5.7 -9.3°
Sets 23:28:29 0° 350° (N) 2,722 6.7 -8.7°
